| time (UTC) | temp F | wind direction | speed knots | gust knots | rain 1hr in | rain 24hr in | rain mn in | humidity % | barometer mb |
| 20260510140504 | 53 | 46 | 0.9 | 10.4 | 0.01 | 0.01 | 0.01 | 78 | 1016.3 |
| 20260510140004 | 54 | 93 | 0.9 | 7.8 | 0.01 | 0.01 | 0.01 | 77 | 1016.3 |
| 20260510133505 | 54 | 44 | 0.9 | 11.3 | 0.00 | 0.00 | 0.00 | 72 | 1016.3 |
| 20260510123004 | 56 | 54 | 1.7 | 11.3 | 0.00 | 0.00 | 0.00 | 65 | 1016.8 |
| 20260510120504 | 57 | 35 | 0.9 | 2.6 | 0.00 | 0.00 | 0.00 | 63 | 1016.8 |
| 20260510113504 | 57 | 58 | 1.7 | 10.4 | 0.00 | 0.00 | 0.00 | 65 | 1017.0 |
| 20260510113004 | 57 | 15 | 0.9 | 10.4 | 0.00 | 0.00 | 0.00 | 64 | 1017.0 |
| 20260510103504 | 55 | 6 | 0.9 | 2.6 | 0.00 | 0.00 | 0.00 | 69 | 1017.4 |
| 20260510103004 | 55 | 354 | 0.9 | 10.4 | 0.00 | 0.00 | 0.00 | 69 | 1017.4 |
| 20260510093004 | 54 | 44 | 0.9 | 10.4 | 0.00 | 0.00 | 0.00 | 70 | 1017.3 |
| 20260510090504 | 53 | 9 | 0.9 | 2.6 | 0.00 | 0.00 | 0.00 | 72 | 1017.5 |
| 20260510083504 | 53 | 51 | 0.9 | 7.8 | 0.00 | 0.00 | 0.00 | 74 | 1017.8 |
| 20260510083004 | 53 | 63 | 2.6 | 10.4 | 0.00 | 0.00 | 0.00 | 74 | 1017.9 |
| 20260510080504 | 53 | 0 | 0.0 | 2.6 | 0.00 | 0.00 | 0.00 | 75 | 1017.9 |
| 20260510073504 | 52 | 0 | 0.9 | 2.6 | 0.00 | 0.00 | 0.00 | 77 | 1017.8 |
| 20260510063004 | 51 | 32 | 0.9 | 10.4 | 0.00 | 0.00 | 0.00 | 79 | 1017.8 |
| 20260510053503 | 50 | 24 | 0.0 | 0.0 | 0.00 | 0.00 | 0.00 | 83 | 1017.6 |
| 20260510053004 | 50 | 24 | 0.0 | 2.6 | 0.00 | 0.00 | 0.00 | 83 | 1017.6 |
| 20260510050503 | 49 | 30 | 0.0 | 0.0 | 0.00 | 0.00 | 0.00 | 84 | 1017.7 |
| 20260510050004 | 49 | 30 | 0.0 | 4.3 | 0.00 | 0.00 | 0.00 | 84 | 1017.6 |
| 20260510043004 | 49 | 338 | 0.0 | 2.6 | 0.00 | 0.00 | 0.00 | 84 | 1017.7 |
| 20260510040504 | 49 | 22 | 0.0 | 2.6 | 0.00 | 0.00 | 0.00 | 84 | 1017.9 |
| 20260510040004 | 49 | 329 | 0.0 | 2.6 | 0.00 | 0.00 | 0.00 | 83 | 1017.9 |
| 20260510023506 | 50 | 41 | 0.0 | 2.6 | 0.00 | 0.00 | 0.00 | 78 | 1018.1 |
| 20260510020505 | 51 | 44 | 0.0 | 2.6 | 0.00 | 0.00 | 0.00 | 75 | 1018.1 |
| 20260510013505 | 51 | 23 | 0.0 | 2.6 | 0.00 | 0.00 | 0.00 | 74 | 1017.9 |
| 20260510013006 | 51 | 50 | 0.0 | 6.1 | 0.00 | 0.00 | 0.00 | 74 | 1018.0 |
| 20260510010506 | 51 | 3 | 0.0 | 4.3 | 0.00 | 0.00 | 0.00 | 71 | 1018.1 |
| 20260510003505 | 52 | 0 | 0.0 | 0.0 | 0.00 | 0.00 | 0.00 | 69 | 1018.0 |
| 20260509233505 | 53 | 38 | 0.0 | 0.9 | 0.00 | 0.00 | 0.00 | 66 | 1018.1 |
| 20260509230505 | 53 | 39 | 0.9 | 4.3 | 0.00 | 0.00 | 0.00 | 64 | 1018.0 |
| 20260509220505 | 54 | 12 | 0.0 | 0.0 | 0.00 | 0.00 | 0.00 | 60 | 1017.8 |
| 20260509213005 | 55 | 21 | 0.0 | 2.6 | 0.00 | 0.00 | 0.00 | 55 | 1017.9 |
| 20260509210505 | 56 | 112 | 0.9 | 2.6 | 0.00 | 0.00 | 0.00 | 51 | 1017.8 |
| 20260509203505 | 57 | 84 | 0.0 | 0.0 | 0.00 | 0.00 | 0.00 | 46 | 1017.6 |
| 20260509200005 | 59 | 105 | 0.0 | 5.2 | 0.00 | 0.00 | 0.00 | 44 | 1017.3 |
| 20260509190005 | 61 | 112 | 0.0 | 4.3 | 0.00 | 0.00 | 0.00 | 44 | 1016.9 |
| 20260509170504 | 67 | 80 | 0.9 | 2.6 | 0.00 | 0.00 | 0.00 | 44 | 1016.4 |
| 20260509153505 | 70 | 72 | 0.9 | 5.2 | 0.00 | 0.00 | 0.00 | 40 | 1016.6 |
| 20260509153005 | 70 | 86 | 0.9 | 10.4 | 0.00 | 0.00 | 0.00 | 40 | 1016.7 |
| 20260509150004 | 71 | 39 | 0.9 | 6.1 | 0.00 | 0.00 | 0.00 | 40 | 1016.8 |
| 20260509143004 | 71 | 3 | 0.9 | 10.4 | 0.00 | 0.00 | 0.00 | 40 | 1016.6 |